• Processing (Info)

  • MPEC 2014-M34 : 2014 MB6

    The following Minor Planet Electronic Circular may be linked-to from your own Web pages, but must not otherwise be redistributed electronically.

    A form allowing access to any MPEC is at the bottom of this page.


    Read MPEC 2014-M33 Read MPEC 2014-M35


    M.P.E.C. 2014-M34                                Issued 2014 June 25, 13:18 UT
    
         The Minor Planet Electronic Circulars contain information on unusual
             minor planets and routine data on comets.  They are published
       on behalf of Commission 20 of the International Astronomical Union by the
              Minor Planet Center, Smithsonian Astrophysical Observatory,
                              Cambridge, MA 02138, U.S.A.
    
                 Prepared using the Tamkin Foundation Computer Network
    
                                  MPC@CFA.HARVARD.EDU
                URL https://www.minorplanetcenter.net/    ISSN 1523-6714
    
                                       2014 MB6
    
    Observations:
         K14M06B* C2014 06 21.38016 20 11 46.89 -08 03 21.0          20.2 VqEM034G96
         K14M06B  C2014 06 21.38784 20 11 51.73 -08 04 19.1          20.4 VqEM034G96
         K14M06B  C2014 06 21.39550 20 11 56.53 -08 05 16.7          19.9 VqEM034G96
         K14M06B  C2014 06 21.40317 20 12 01.43 -08 06 14.3          20.4 VqEM034G96
         K14M06B KC2014 06 21.42650 20 12 16.22 -08 09 05.6          20.1 RoEM034291
         K14M06B KC2014 06 21.42744 20 12 16.79 -08 09 12.9                oEM034291
         K14M06B KC2014 06 21.42837 20 12 17.38 -08 09 19.6          20.2 RoEM034291
         K14M06B KC2014 06 21.58035 20 14 09.55 -08 22 18.2          19.1 RtEM034474
         K14M06B KC2014 06 21.58155 20 14 10.22 -08 22 25.1          20.6 RtEM034474
         K14M06B KC2014 06 21.58395 20 14 11.71 -08 22 43.5          20.1 RtEM034474
         K14M06B KC2014 06 21.58753 20 14 13.86 -08 23 09.4          20.0 RtEM034474
         K14M06B KC2014 06 22.03276 20 18 59.28 -09 18 04.5                qEM034J95
         K14M06B KC2014 06 22.05083 20 19 08.92 -09 19 56.0          20.2 RqEM034J95
         K14M06B  C2014 06 22.33970 20 21 54.95 -09 47 08.7          20.5 VqEM034G96
         K14M06B  C2014 06 22.34052 20 21 55.32 -09 47 12.9          20.8 VqEM034G96
         K14M06B  C2014 06 22.34136 20 21 55.72 -09 47 17.8          19.8 VqEM034G96
         K14M06B  C2014 06 22.34219 20 21 56.10 -09 47 22.6          19.9 VqEM034G96
         K14M06B KC2014 06 22.61170 20 24 12.77 -10 06 56.2          20.4 RtEM034474
         K14M06B KC2014 06 22.61290 20 24 13.27 -10 07 02.6          20.6 RtEM034474
         K14M06B KC2014 06 22.61410 20 24 13.81 -10 07 08.8          20.7 RtEM034474
         K14M06B KC2014 06 22.61506 20 24 14.27 -10 07 13.8          20.7 RtEM034474
         K14M06B  C2014 06 23.36495 20 29 57.35 -11 10 09.2          21.2 VqEM034I52
         K14M06B  C2014 06 23.36606 20 29 57.74 -11 10 14.0          21.6 VqEM034I52
         K14M06B  C2014 06 23.36717 20 29 58.12 -11 10 18.6          21.2 VqEM034I52
         K14M06B  C2014 06 24.36793 20 36 00.59 -12 12 42.6                qEM034I52
         K14M06B  C2014 06 24.37230 20 36 01.67 -12 12 57.3          21.1 VqEM034I52
         K14M06B  C2014 06 25.36438 20 40 45.06 -13 02 14.0          21.4 VqEM034I52
         K14M06B  C2014 06 25.36584 20 40 45.35 -13 02 17.8          21.2 VqEM034I52
    
    Observer details:
    291 LPL/Spacewatch II.  Observer R. A. Mastaler.  1.8-m f/2.7 reflector + CCD.
    474 Mount John Observatory, Lake Tekapo.  Observers A. C. Gilmore,
        P. M. Kilmartin.  Measurer P. M. Kilmartin.  1.0-m f/7.7 reflector + CCD.
    G96 Mt. Lemmon Survey.  Observer R. A. Kowalski.  Measurers E. J. Christensen,
        A. R. Gibbs, A. D. Grauer, R. E. Hill, J. A. Johnson, R. A. Kowalski,
        S. M. Larson, R. J. Sanders, F. C. Shelly.  1.5-m reflector + CCD.
    I52 Steward Observatory, Mt. Lemmon Station.  Observer A. R. Gibbs.  Measurers
        E. J. Christensen, A. R. Gibbs, A. D. Grauer, R. E. Hill, J. A. Johnson,
        R. A. Kowalski, S. M. Larson, R. J. Sanders, F. C. Shelly.  1.0-m
        reflector + CCD.
    J95 Great Shefford.  Observer P. Birtwhistle.  0.40-m f/6.0 Schmidt-Cassegrain
        + CCD.
    
    Orbital elements:
    2014 MB6                                                 Earth MOID = 0.0096 AU
    Epoch 2014 May 23.0 TT = JDT 2456800.5                  MPC
    M 358.79423              (2000.0)            P               Q
    n   0.20765541     Peri.  133.32572     -0.47763627     +0.87831909
    a   2.8242765      Node   108.13268     -0.81216671     -0.43253543
    e   0.6492477      Incl.    1.23446     -0.33503555     -0.20363862
    P   4.75           H   26.2           G   0.15           U   4
    Residuals in seconds of arc
    140621 G96  0.2+  0.0     140621 474  0.2-  0.2+    140622 474  0.3+  0.2+
    140621 G96  0.1-  0.2-    140622 J95  0.3+  0.2-    140623 I52  0.4-  0.2+
    140621 G96  0.5-  0.1-    140622 J95  0.5+  0.5-    140623 I52  0.2-  0.1+
    140621 G96  0.6+  0.3-    140622 G96  0.2-  0.3-    140623 I52  0.1-  0.2+
    140621 291  0.2+  0.2+    140622 G96  0.4-  0.2+    140624 I52  0.3+  0.1-
    140621 291  0.0   0.2-    140622 G96  0.2-  0.0     140624 I52  0.3-  0.1-
    140621 291  0.1+  0.0     140622 G96  0.3-  0.1-    140625 I52  0.4+  0.0
    140621 474  0.3+  0.1+    140622 474  0.3-  0.3+    140625 I52  0.4+  0.2+
    140621 474  0.5-  1.8+    140622 474  0.6-  0.2+
    140621 474  0.0   0.6+    140622 474  0.3-  0.2+
    
    Ephemeris:
    2014 MB6                 a,e,i = 2.82, 0.65, 1                   q = 0.9906
    Date    TT    R. A. (2000) Decl.     Delta      r     Elong.  Phase     V
    2014 05 26    09 42 43.9 +22 07 29   0.1190  0.9914    76.2    97.1    25.0
    ...
    2014 06 10    10 40 02.2 +27 35 35   0.03669 1.0050    73.0   105.0    22.9
    ...
    2014 06 18    18 46 19.5 +06 53 39   0.01613 1.0294   146.2    33.3    18.7
    ...
    2014 06 24    20 33 54.6 -11 49 17   0.04681 1.0546   143.9    34.6    21.1
    2014 06 25    20 39 05.6 -12 43 20   0.05240 1.0593   144.0    34.3    21.3
    2014 06 26    20 43 13.2 -13 27 07   0.05804 1.0642   144.3    33.9    21.6
    ...
    2014 07 02    20 56 12.2 -16 01 05   0.09258 1.0962   147.9    29.5    22.5
    ...
    2014 07 10    21 00 43.0 -17 37 36   0.1407  1.1456   154.9    22.1    23.3
    ...
    2014 07 25    20 58 12.3 -19 08 44   0.2408  1.2537   170.1     8.0    24.2
    
    A. U. Tomatic                (C) Copyright 2014 MPC           M.P.E.C. 2014-M34
    

    Read MPEC 2014-M33 Read MPEC 2014-M35


    MPEC number:

    Enter an MPEC number in one of the following forms:

    • 1997-B01 (the full form)
    • J97B01 (the packed version of the full form)
    • B01 (the abbreviated form)